Location: ?????
(33.6267°N, 35.4675°E)
Time: 14:39:47
(UTC+00:00)

ATLAS 5 CENTAUR R/B - Pass Details

Date: 24 February 2020
Orbit: 542 x 1116 km, 63.4° (Epoch: 06 April)

Event Time Altitude Azimuth Distance (km) Brightness Sun altitude
Rises 03:42:55 0° 182° (S) 2,683 4.9 -7.1°
Reaches altitude 10° 03:45:20 10° 169° (S) 1,801 4.2 -6.6°
Maximum altitude 03:48:39 25° 112° (ESE) 1,134 4.0 -5.9°
Drops below altitude 10° 03:52:09 10° 56° (NE) 1,911 4.9 -5.2°
Sets 03:54:46 0° 44° (NE) 2,886 5.5 -4.7°
